Nome, AK

1:18 AM AKDT on March 30, 2017 (GMT -0800)
Nome

Weather History for PAOM - July, 2013

Change the Weather History Date:

Saturday, July 13, 2013

  Actual Average Record
Temperature  
Mean Temperature 60 °F 53 °F  
Max Temperature 72 °F 59 °F 77 °F (1976)
Min Temperature 48 °F 47 °F 31 °F (1973)
Degree Days  
Heating Degree Days 5 12  
Month to date heating degree days 177 166  
Since 1 June heating degree days 653 682  
Since 1 July heating degree days 177 166  
Cooling Degree Days 0    
Month to date cooling degree days 0  
Year to date cooling degree days 7  
Since 1 June cooling degree days 7  
Growing Degree Days 10 (Base 50)    
Moisture  
Dew Point 48 °F    
Average Humidity 0    
Maximum Humidity 0    
Minimum Humidity 0    
Precipitation  
Precipitation 0.00 in 0.06 in 0.77 in (1990)
Month to date precipitation 1.23 0.69  
Year to date precipitation 8.01 5.81  
Snow  
Snow 0.00 in 0.00 in 0.00 in (2016)
Month to date snowfall 0.0 0.0  
Since 1 June snowfall 0.1 0.3  
Since 1 July snowfall 0.0 0.0  
Snow Depth 0.00 in    
Sea Level Pressure  
Sea Level Pressure 29.95 in    
Wind  
Wind Speed 0 mph (SE)    
Max Wind Speed 14 mph    
Max Gust Speed 18 mph    
Visibility 10 miles    
Events      
T = Trace of Precipitation, MM = Missing Value Source: NWS Daily Summary

Daily Weather History Graph

Daily Weather History Graph

Search for Another Location

Airport or City:

Trip Planner

Search our weather history database for the weather conditions in past years. The results will help you decide how hot, cold, wet, or windy it might be!

Date:

Astronomy

Jul. 13, 2013 Rise Set
Actual Time 5:04 AM AKDT 1:08 AM AKDT
Civil Twilight 3:40 AM AKDT 2:35 AM AKDT
Nautical Twilight Sun does not rise Sun does not rise
Astronomical Twilight Sun does not rise Sun does not rise
Moon 1:20 PM AKDT (7/13) 12:51 AM AKDT (7/13)
Length of Visible Light 22h 55m
Length of Day
20h 04m
Waxing Crescent, 27% of the Moon is Illuminated
Jul 13
Waxing Crescent
Jul 15
First Quarter
Jul 22
Full
Jul 29
Last Quarter
Aug 6
New

Hourly Weather History & Observations

Time (AKDT) Temp. Dew Point Humidity Pressure Visibility Wind Dir Wind Speed Gust Speed Precip Events Conditions
12:53 AM 55.9 °F 46.9 °F 72% 29.98 in 10.0 mi Calm Calm - N/A   Scattered Clouds
1:53 AM 51.1 °F 44.1 °F 77% 29.99 in 10.0 mi Calm Calm - N/A   Scattered Clouds
2:53 AM 53.1 °F 46.9 °F 80% 29.99 in 10.0 mi Calm Calm - N/A   Scattered Clouds
3:53 AM 48.9 °F 44.1 °F 83% 29.99 in 10.0 mi Calm Calm - N/A   Scattered Clouds
4:53 AM 51.1 °F 44.1 °F 77% 29.99 in 10.0 mi Calm Calm - N/A   Scattered Clouds
5:53 AM 48.0 °F 44.1 °F 86% 29.98 in 10.0 mi Calm Calm - N/A   Clear
6:53 AM 50.0 °F 44.1 °F 80% 29.98 in 10.0 mi Calm Calm - N/A   Scattered Clouds
7:53 AM 55.0 °F 46.9 °F 74% 29.96 in 10.0 mi Calm Calm - N/A   Scattered Clouds
8:53 AM 55.9 °F 48.9 °F 77% 29.96 in 10.0 mi Calm Calm - N/A   Scattered Clouds
9:53 AM 60.1 °F 50.0 °F 69% 29.95 in 10.0 mi South 3.5 mph - N/A   Scattered Clouds
10:53 AM 62.1 °F 48.9 °F 62% 29.95 in 10.0 mi Calm Calm - N/A   Scattered Clouds
11:53 AM 62.1 °F 48.0 °F 60% 29.96 in 10.0 mi SSW 4.6 mph - N/A   Mostly Cloudy
12:53 PM 61.0 °F 48.9 °F 64% 29.95 in 10.0 mi Variable 4.6 mph - N/A   Mostly Cloudy
1:53 PM 62.1 °F 50.0 °F 65% 29.96 in 10.0 mi South 4.6 mph - N/A   Mostly Cloudy
2:53 PM 64.0 °F 52.0 °F 65% 29.96 in 10.0 mi South 5.8 mph - N/A   Mostly Cloudy
3:53 PM 64.9 °F 52.0 °F 63% 29.95 in 10.0 mi SSE 6.9 mph - N/A   Mostly Cloudy
4:53 PM 66.0 °F 53.1 °F 63% 29.95 in 10.0 mi SSE 6.9 mph - N/A   Scattered Clouds
5:53 PM 66.0 °F 53.1 °F 63% 29.95 in 10.0 mi SSE 8.1 mph - N/A   Scattered Clouds
6:53 PM 68.0 °F 46.0 °F 45% 29.94 in 10.0 mi SE 9.2 mph - N/A   Scattered Clouds
7:53 PM 68.0 °F 45.0 °F 43% 29.93 in 10.0 mi ESE 11.5 mph - N/A   Scattered Clouds
8:53 PM 71.1 °F 46.0 °F 41% 29.91 in 10.0 mi East 9.2 mph - N/A   Mostly Cloudy
9:53 PM 70.0 °F 48.0 °F 46% 29.89 in 10.0 mi East 10.4 mph - N/A   Mostly Cloudy
10:53 PM 66.0 °F 46.9 °F 50% 29.89 in 10.0 mi ESE 12.7 mph - N/A   Mostly Cloudy
11:53 PM 64.0 °F 54.0 °F 70% 29.90 in 10.0 mi East 10.4 mph - N/A   Mostly Cloudy